VJC224 VVDN-VVTS

Flight info

Callsign VJC224
Flight time N/A
Altitude 38000
Route SADIN1G SADIN Q1 DOVIN DOVIN5E
Aircraft A321/M-SDE3FGHIRWY/LB1

Departure

Time 2026-04-22 16:09
Airport Da Nang International Airport (VVDN)

Arrival

Time N/A
Airport Tan Son Nhat International Airport (VVTS)
Time Latitude Longitude Altitude Speed Heading
2026-04-22 15:25 16.05260 108.20183 32 ft 0 kts 81°
2026-04-22 15:36 16.05173 108.20213 32 ft 0 kts 81°
2026-04-22 15:56 16.05172 108.20207 48 ft 2 kts 81°
2026-04-22 15:57 16.05169 108.20193 48 ft 2 kts 81°
2026-04-22 15:57 16.05167 108.20177 48 ft 2 kts 81°
2026-04-22 15:57 16.05165 108.20162 48 ft 2 kts 81°
2026-04-22 15:57 16.05162 108.20147 48 ft 2 kts 81°
2026-04-22 15:58 16.05160 108.20132 48 ft 2 kts 81°
2026-04-22 15:58 16.05157 108.20116 48 ft 2 kts 81°
2026-04-22 15:58 16.05157 108.20100 49 ft 2 kts 103°
2026-04-22 15:58 16.05162 108.20086 49 ft 2 kts 120°
2026-04-22 15:59 16.05171 108.20074 49 ft 2 kts 140°
2026-04-22 15:59 16.05184 108.20066 49 ft 2 kts 159°
2026-04-22 15:59 16.05193 108.20063 49 ft 0 kts 171°
2026-04-22 15:59 16.05200 108.20062 49 ft 0 kts 172°
2026-04-22 16:01 16.05198 108.20062 49 ft 0 kts 172°
2026-04-22 16:01 16.05190 108.20064 49 ft 1 kts 172°
2026-04-22 16:01 16.05167 108.20067 49 ft 4 kts 172°
2026-04-22 16:01 16.05125 108.20073 49 ft 7 kts 171°
2026-04-22 16:02 16.05064 108.20082 49 ft 10 kts 172°
2026-04-22 16:02 16.04982 108.20094 49 ft 12 kts 172°
2026-04-22 16:02 16.04889 108.20107 51 ft 13 kts 172°
2026-04-22 16:02 16.04789 108.20122 52 ft 15 kts 172°
2026-04-22 16:03 16.04677 108.20139 52 ft 17 kts 173°
2026-04-22 16:03 16.04549 108.20156 52 ft 19 kts 171°
2026-04-22 16:03 16.04413 108.20176 52 ft 20 kts 172°
2026-04-22 16:03 16.04265 108.20197 52 ft 21 kts 172°
2026-04-22 16:04 16.04110 108.20221 53 ft 22 kts 171°
2026-04-22 16:04 16.03953 108.20243 54 ft 22 kts 172°
2026-04-22 16:04 16.03793 108.20267 54 ft 23 kts 172°
2026-04-22 16:04 16.03623 108.20293 52 ft 25 kts 171°
2026-04-22 16:05 16.03503 108.20310 52 ft 26 kts 173°
2026-04-22 16:05 16.03262 108.20344 54 ft 25 kts 172°
2026-04-22 16:05 16.03098 108.20366 55 ft 23 kts 172°
2026-04-22 16:05 16.02974 108.20379 55 ft 14 kts 196°
2026-04-22 16:06 16.02934 108.20336 55 ft 0 kts 261°
2026-04-22 16:06 16.02933 108.20330 55 ft 1 kts 261°
2026-04-22 16:06 16.02931 108.20316 56 ft 2 kts 261°
2026-04-22 16:06 16.02928 108.20296 56 ft 3 kts 261°
2026-04-22 16:07 16.02923 108.20267 56 ft 4 kts 268°
2026-04-22 16:07 16.02954 108.20248 56 ft 7 kts 355°
2026-04-22 16:07 16.03012 108.20241 56 ft 8 kts 353°
2026-04-22 16:07 16.03076 108.20233 56 ft 9 kts 353°
2026-04-22 16:08 16.03161 108.20222 54 ft 17 kts 353°
2026-04-22 16:08 16.03530 108.20162 53 ft 89 kts 352°
2026-04-22 16:08 16.04355 108.20041 53 ft 150 kts 353°
2026-04-22 16:08 16.05530 108.19874 336 ft 175 kts 351°
2026-04-22 16:09 16.06749 108.19721 913 ft 179 kts 358°
2026-04-22 16:09 16.07993 108.19708 1582 ft 181 kts 359°
2026-04-22 16:09 16.09249 108.19680 2070 ft 183 kts 358°
2026-04-22 16:09 16.10560 108.19650 2329 ft 196 kts 359°
2026-04-22 16:10 16.11983 108.19621 2599 ft 210 kts 359°
2026-04-22 16:10 16.13504 108.19585 2875 ft 224 kts 359°
2026-04-22 16:10 16.14563 108.19606 3042 ft 234 kts
2026-04-22 16:10 16.16575 108.20651 3312 ft 257 kts 48°
2026-04-22 16:11 16.17470 108.22302 3637 ft 269 kts 77°
2026-04-22 16:11 16.17588 108.24239 4209 ft 271 kts 91°
2026-04-22 16:11 16.17572 108.26197 4832 ft 275 kts 90°
2026-04-22 16:11 16.17574 108.28200 5445 ft 279 kts 89°
2026-04-22 16:12 16.17590 108.30218 6061 ft 283 kts 88°
2026-04-22 16:12 16.17614 108.32250 6689 ft 286 kts 88°
2026-04-22 16:12 16.17639 108.34329 7320 ft 289 kts 90°
2026-04-22 16:12 16.17283 108.36365 7712 ft 292 kts 115°
2026-04-22 16:13 16.16016 108.38023 7886 ft 293 kts 143°
2026-04-22 16:13 16.14190 108.38883 7894 ft 292 kts 170°
2026-04-22 16:13 16.12163 108.38938 7902 ft 291 kts 184°
2026-04-22 16:13 16.10122 108.38872 7902 ft 291 kts 180°
2026-04-22 16:14 16.08098 108.38890 7941 ft 294 kts 179°
2026-04-22 16:14 16.06022 108.38926 8394 ft 299 kts 179°
2026-04-22 16:14 16.03935 108.38961 9137 ft 297 kts 179°
2026-04-22 16:14 16.01872 108.38992 9778 ft 299 kts 180°
2026-04-22 16:15 15.99757 108.39021 10291 ft 306 kts 180°
2026-04-22 16:15 15.97572 108.39050 10560 ft 321 kts 180°
2026-04-22 16:15 15.95293 108.39078 10958 ft 330 kts 180°
2026-04-22 16:15 15.92987 108.39109 11530 ft 333 kts 180°
2026-04-22 16:16 15.90682 108.39139 12122 ft 335 kts 179°
2026-04-22 16:16 15.88336 108.39170 12671 ft 338 kts 179°
2026-04-22 16:16 15.85985 108.39201 13204 ft 340 kts 179°
2026-04-22 16:16 15.83582 108.39233 13711 ft 343 kts 179°
2026-04-22 16:17 15.81181 108.39264 14188 ft 346 kts 179°
2026-04-22 16:17 15.78760 108.39295 14663 ft 349 kts 179°
2026-04-22 16:17 15.76329 108.39326 15154 ft 351 kts 179°
2026-04-22 16:17 15.73878 108.39356 15595 ft 354 kts 179°
2026-04-22 16:18 15.71395 108.39387 16032 ft 356 kts 179°
2026-04-22 16:18 15.68930 108.39419 16477 ft 359 kts 179°
2026-04-22 16:18 15.66389 108.39451 16898 ft 362 kts 179°
2026-04-22 16:18 15.63862 108.39483 17304 ft 364 kts 179°
2026-04-22 16:19 15.61325 108.39514 17709 ft 366 kts 179°
2026-04-22 16:19 15.58756 108.39545 18125 ft 369 kts 179°
2026-04-22 16:19 15.56198 108.39516 18522 ft 371 kts 184°
2026-04-22 16:19 15.53645 108.39076 18905 ft 373 kts 194°
2026-04-22 16:20 15.51195 108.38185 19287 ft 375 kts 202°
2026-04-22 16:20 15.48792 108.37070 19659 ft 378 kts 204°
2026-04-22 16:20 15.46390 108.35915 20036 ft 380 kts 204°
2026-04-22 16:20 15.43963 108.34748 20401 ft 383 kts 204°
2026-04-22 16:21 15.41533 108.33586 20756 ft 385 kts 204°
2026-04-22 16:21 15.39109 108.32434 21127 ft 387 kts 203°
2026-04-22 16:21 15.36655 108.31271 21487 ft 389 kts 203°
2026-04-22 16:21 15.34169 108.30095 21845 ft 391 kts 203°
2026-04-22 16:22 15.29171 108.27734 22559 ft 395 kts 203°
2026-04-22 16:22 15.26682 108.26559 22913 ft 398 kts 203°
2026-04-22 16:22 15.24150 108.25365 23263 ft 400 kts 203°
2026-04-22 16:23 15.19038 108.22952 23961 ft 405 kts 203°
2026-04-22 16:23 15.16473 108.21742 24305 ft 407 kts 203°
2026-04-22 16:23 15.13898 108.20527 24641 ft 409 kts 203°
2026-04-22 16:24 15.11265 108.19291 24978 ft 412 kts 202°
2026-04-22 16:24 15.05737 108.17750 25639 ft 413 kts 185°
2026-04-22 16:24 15.02870 108.17574 25961 ft 414 kts 180°
2026-04-22 16:25 15.00002 108.17512 26282 ft 417 kts 179°
2026-04-22 16:25 14.94119 108.17416 26909 ft 422 kts 179°
2026-04-22 16:25 14.91194 108.17361 27218 ft 424 kts 180°
2026-04-22 16:26 14.88226 108.17302 27525 ft 427 kts 180°
2026-04-22 16:26 14.85246 108.17239 27825 ft 429 kts 180°
2026-04-22 16:26 14.82260 108.17175 28133 ft 431 kts 180°
2026-04-22 16:26 14.79242 108.17109 28443 ft 433 kts 180°
2026-04-22 16:27 14.76207 108.17042 28750 ft 435 kts 180°
2026-04-22 16:27 14.73159 108.16974 29037 ft 437 kts 180°
2026-04-22 16:27 14.70085 108.16905 29325 ft 440 kts 180°
2026-04-22 16:27 14.67053 108.16838 29609 ft 442 kts 180°
2026-04-22 16:28 14.63943 108.16769 29894 ft 444 kts 180°
2026-04-22 16:28 14.60832 108.16700 30175 ft 446 kts 180°
2026-04-22 16:28 14.57725 108.16632 30446 ft 448 kts 180°
2026-04-22 16:28 14.54595 108.16563 30719 ft 449 kts 179°
2026-04-22 16:29 14.51488 108.16494 30978 ft 451 kts 179°
2026-04-22 16:29 14.48307 108.16424 31247 ft 453 kts 179°
2026-04-22 16:29 14.45158 108.16354 31511 ft 454 kts 179°
2026-04-22 16:29 14.41986 108.16283 31766 ft 456 kts 179°
2026-04-22 16:30 14.39852 108.16236 31938 ft 457 kts 179°
2026-04-22 16:30 14.35611 108.16141 32367 ft 456 kts 179°
2026-04-22 16:30 14.32455 108.16070 32742 ft 455 kts 179°
2026-04-22 16:30 14.29302 108.16000 33140 ft 453 kts 179°
2026-04-22 16:31 14.26134 108.15932 33546 ft 452 kts 179°
2026-04-22 16:31 14.22986 108.15868 33933 ft 451 kts 179°
2026-04-22 16:31 14.19879 108.15803 34309 ft 450 kts 179°
2026-04-22 16:31 14.16724 108.15736 34622 ft 450 kts 179°
2026-04-22 16:32 14.13574 108.15669 34877 ft 451 kts 179°
2026-04-22 16:32 14.10459 108.15602 35112 ft 452 kts 179°
2026-04-22 16:32 14.07291 108.15533 35362 ft 453 kts 179°
2026-04-22 16:32 14.04112 108.15466 35587 ft 454 kts 179°
2026-04-22 16:33 14.00953 108.15398 35810 ft 455 kts 179°
2026-04-22 16:33 13.97799 108.15331 35964 ft 456 kts 179°
2026-04-22 16:33 13.91429 108.15195 35963 ft 457 kts 179°
2026-04-22 16:34 13.85055 108.15056 35956 ft 457 kts 179°
2026-04-22 16:34 13.78669 108.14915 35945 ft 457 kts 179°
2026-04-22 16:35 13.72314 108.14776 35935 ft 457 kts 179°
2026-04-22 16:35 13.65974 108.14638 35927 ft 457 kts 179°
2026-04-22 16:36 13.59562 108.14497 35912 ft 457 kts 179°
2026-04-22 16:36 13.53210 108.14358 35901 ft 457 kts 179°
2026-04-22 16:37 13.46838 108.14217 35893 ft 457 kts 179°
2026-04-22 16:37 13.40466 108.14073 35901 ft 457 kts 179°
2026-04-22 16:38 13.34108 108.13934 35909 ft 457 kts 179°
2026-04-22 16:38 13.27750 108.13789 35915 ft 456 kts 180°
2026-04-22 16:39 13.21386 108.13637 35922 ft 457 kts 180°
2026-04-22 16:39 13.15018 108.13485 35920 ft 457 kts 180°
2026-04-22 16:40 13.08647 108.13332 35920 ft 457 kts 180°
2026-04-22 16:41 12.99109 108.13102 35917 ft 456 kts 180°
2026-04-22 16:41 12.92733 108.12947 35915 ft 456 kts 180°
2026-04-22 16:42 12.86334 108.12794 35914 ft 465 kts 180°
2026-04-22 16:42 12.79810 108.12638 35915 ft 472 kts 180°
2026-04-22 16:43 12.73195 108.12476 35916 ft 474 kts 180°
2026-04-22 16:43 12.66595 108.12316 35917 ft 474 kts 180°
2026-04-22 16:44 12.60007 108.12184 35926 ft 473 kts 179°
2026-04-22 16:44 12.53390 108.12058 35921 ft 473 kts 180°
2026-04-22 16:45 12.46814 108.11929 35929 ft 473 kts 180°
2026-04-22 16:45 12.40199 108.11797 35945 ft 473 kts 180°
2026-04-22 16:46 12.33595 108.11665 35961 ft 473 kts 180°
2026-04-22 16:46 12.30332 108.11601 35768 ft 474 kts 180°
2026-04-22 16:46 12.27026 108.11533 35476 ft 466 kts 179°
2026-04-22 16:46 12.23821 108.11467 35169 ft 457 kts 179°
2026-04-22 16:47 12.20670 108.11404 34727 ft 450 kts 179°
2026-04-22 16:47 12.17552 108.11340 34160 ft 448 kts 179°
2026-04-22 16:47 12.15462 108.11298 33711 ft 447 kts 179°
2026-04-22 16:47 12.11317 108.11214 32751 ft 449 kts 179°
2026-04-22 16:48 12.08183 108.11152 32034 ft 451 kts 179°
2026-04-22 16:48 12.05015 108.11089 31385 ft 450 kts 179°
2026-04-22 16:48 12.01910 108.11027 30941 ft 445 kts 179°
2026-04-22 16:48 11.98840 108.10964 30486 ft 440 kts 179°
2026-04-22 16:49 11.95764 108.10885 30017 ft 437 kts 181°
2026-04-22 16:49 11.92781 108.10371 29550 ft 435 kts 194°
2026-04-22 16:49 11.89980 108.09244 29103 ft 432 kts 206°
2026-04-22 16:49 11.87450 108.07571 28663 ft 429 kts 216°
2026-04-22 16:50 11.85895 108.06348 28388 ft 426 kts 217°
2026-04-22 16:50 11.84344 108.05096 28105 ft 422 kts 218°